weather.gov     
National Weather Service

Regional Weather Roundup
NWS Homepage
This page is being discontinued on March 12, 2014.
The same data is available at this site. Please update your bookmarks.
Thank you, and we apologize for the inconvenience.
Please send an email to SR-SRH.Webmaster@noaa.gov with any concerns.


Current Version
Previous Version:    01  02  03  04  05  06  07  08  09  10  11  12  13  14  15  16  17  18  19  20  21  22  23  24  25  26  
[Printable]
817
ASUS41 KAKQ 212110
RWRAKQ

REGIONAL WEATHER ROUNDUP
NATIONAL WEATHER SERVICE WAKEFIELD VA
500 PM EDT TUE OCT 21 2014

Note: "fair" indicates few or no clouds below 12,000 feet with no
significant weather and/or obstructions to visibility. * = Denotes
station may not report precipitation (e.g., rain,snow,etc.),
thunder or fog.

VAZ042-051-052>054-056-212200-
NORTHERN VIRGINIA

CITY           SKY/WX    TMP DP  RH WIND       PRES   REMARKS
WASH NATIONAL  LGT RAIN  63  51  65 SW9       29.83R
DULLES         CLOUDY    63  46  54 NW10      29.82R
FORT BELVOIR   PTSUNNY   61  52  72 NW5       29.81S
QUANTICO       LGT RAIN  67  49  52 NE12      29.81R
FREDERICKSBRG* CLOUDY    69  51  51 SW5       29.79R
STAFFORD*      CLOUDY    62  49  62 NW14G20   29.85R
WARRENTON      LGT RAIN  57  56  97 N10       29.82R
CULPEPER*      CLOUDY    57  54  88 N6        29.83S
MANASSAS*      NOT AVBL
LEESBURG*      LGT RAIN  63  52  67 W7        29.85R
WINCHESTER     RAIN      54  48  82 CALM        N/A
FRONT ROYAL*   CLOUDY    54  50  87 CALM      29.86R
LURAY*         LGT RAIN  55  52  88 SE6       29.86R
$$

VAZ048-049-060>072-079>083-212200-
CENTRAL AND SOUTH CENTRAL VIRGINIA...AND NORTH CENTRAL NORTH CAROLINA

CITY           SKY/WX    TMP DP  RH WIND       PRES   REMARKS
RICHMOND       PTSUNNY   69  48  47 NW6       29.80R
CHESTERFIELD*  CLOUDY   N/A N/A N/A W5        29.82R
PETERSBURG*    PTSUNNY   68  47  47 SW6       29.82R
HANOVER        PTSUNNY   68  48  48 SW3       29.81F
TAPPAHANNOCK*  PTSUNNY   69  48  46 CALM      29.81R
CHARLOTTSVILLE LGT RAIN  55  50  83 N6        29.83R
ORANGE*        CLOUDY    63  50  63 N5        29.83R
LOUISA*        PTSUNNY   66  52  59 CALM      29.79S
FARMVILLE*     CLOUDY    66  45  45 SW9       29.81R
CREWE*         MOCLDY    69  46  43 SW5       29.81S
FORT PICKETT*  CLOUDY    67  49  52 SW6       29.82S
LUNENBURG*     CLOUDY    68  50  52 CALM      29.82S
SOUTH HILL*    PTSUNNY   70  54  56 W3        29.88R
LAWRENCEVILLE* PTCLDY    67  52  57 CALM      29.82S
ROANOKE RAPIDS MOCLDY    68  52  56 W3        29.83R
RALEIGH        PTSUNNY   69  48  47 W5        29.84S
$$

VAZ088>098-212200-
SOUTHEAST VIRGINIA

CITY           SKY/WX    TMP DP  RH WIND       PRES   REMARKS
NORFOLK        SUNNY     71  47  42 W3        29.81R
VIRGINIA BEACH PTSUNNY   74  48  39 SW8       29.80S
NORFOLK NAVAL  MOSUNNY   74  49  41 W5        29.82S
WEST POINT*    MOSUNNY   73  47  40 S3        29.81S
NEWPORT NEWS   SUNNY     74  50  42 SW5       29.81R
LANGLEY AFB    SUNNY     71  50  47 W7        29.81R
FORT EUSTIS    SUNNY     71  50  47 VRB2      29.79S
WILLIAMSBURG*  SUNNY     73  54  49 CALM      29.81S
HR EXEC AP*    PTCLDY    72  50  46 W5        29.83R
FRANKLIN*      PTSUNNY   70  50  49 W3        29.82R
WAKEFIELD      MOSUNNY   72  51  47 W6        29.81S
$$

VAZ020-022-025-037-045-212200-
WEST CENTRAL AND SOUTHWEST VIRGINIA

CITY           SKY/WX    TMP DP  RH WIND       PRES   REMARKS
STAUNTON*      RAIN      55  47  74 NW9       29.89R
HOT SPRINGS VA CLOUDY    46  39  76 W16G25    29.87R
LYNCHBURG      MOSUNNY   61  44  53 NW10G18   29.87R
DANVILLE       PTSUNNY   68  47  46 NW6       29.85R
SOUTH BOSTON*  NOT AVBL
MARTINSVILLE   SUNNY     66  43  42 NW12      29.90R
ROANOKE        PTSUNNY   60  40  47 NW20G25   29.90R
BLACKSBURG     CLOUDY    55  45  67 NW12G21   29.94R
DUBLIN*        CLOUDY    56  42  60 W10       29.94S
MARION*        CLOUDY    54  38  55 W17G26    29.98R
HILLSVILLE*    CLOUDY    53  38  57 W15G22    29.93R
RICHLANDS*     CLOUDY    52  40  63 NW7       29.99R
WISE*          CLOUDY    50  37  62 NW9       30.03R
ABINGDON*      CLOUDY    56  38  49 NW9G20    29.99R
$$

MDZ021>025-VAZ099-100-212200-
SOUTHERN MARYLAND AND THE DELMARVA PENINSULA

CITY           SKY/WX    TMP DP  RH WIND       PRES   REMARKS
PATUXENT RIVER MOSUNNY   68  45  43 E5        29.80S
BAY BRIDGE APT NOT AVBL
LEONARDTOWN    PTSUNNY   64  45  48 CALM      29.82S
DOVER          MOSUNNY   63  51  66 E3        29.79S
GEORGETOWN     PTSUNNY   69  51  52 E14       29.81R
EASTON         MOSUNNY   70  46  43 CALM      29.85R
CAMBRIDGE      SUNNY     72  46  40 N3        29.81R
SALISBURY      SUNNY     72  46  40 W6        29.81R HAZE
OCEAN CITY     MOSUNNY   67  58  72 S6        29.80R
WALLOPS ISLAND SUNNY     70  48  45 NW6       29.82R
ACCOMACK*      SUNNY     70  45  40 CALM      29.81S
$$

NCZ012>017-030>032-212200-
EASTERN NORTH CAROLINA

CITY           SKY/WX    TMP DP  RH WIND       PRES   REMARKS
ELIZABETH CITY PTSUNNY   73  54  51 SW7       29.81S
AHOSKIE*       MOSUNNY   68  51  55 CALM      29.83S
EDENTON*       SUNNY     74  54  49 W5        29.82S
CURRITUCK*     MOSUNNY   74  48  40 W7        29.81S
KILL DEVIL HLS PTSUNNY   71  56  59 CALM      29.81S
MANTEO         CLOUDY    70  57  63 S10       29.82S
CAPE HATTERAS  SUNNY     71  58  63 SW8       29.84F
TARBORO*       MOCLDY    74  50  43 NW5       29.84S
GOLDSBORO      MOSUNNY   74  53  47 W7        29.82S
WASHINGTON     MOSUNNY   74  50  43 W5        29.82S
GREENVILLE     SUNNY     73  50  43 NW3       29.86R
NEW BERN       MOSUNNY   74  53  48 SW3       29.84R
WILMINGTON     SUNNY     77  52  41 SW8       29.83S
$$

VAZ048-212200-
ELSEWHERE

CITY           SKY/WX    TMP DP  RH WIND       PRES   REMARKS
HARRISBURG PA  PTSUNNY   60  49  66 NW7       29.82R
BALTIMORE      PTSUNNY   65  49  56 SE6       29.80S
ANNAPOLIS      MOSUNNY   64  52  64 SE6       29.80F
ANDREWS AFB    MOSUNNY   64  51  63 E2        29.81R
WILMINGTON DE  MOSUNNY   65  50  58 N12       29.82R
PHILADELPHIA   MOSUNNY   68  46  45 W5        29.81S
WILDWOOD NJ*   SUNNY     66  43  42 CALM      29.82S
ATLANTIC CITY  SUNNY     68  51  54 S7        29.80S
HENDERSON NC   PTSUNNY   68  47  46 W5        29.84S
GREENSBORO     PTSUNNY   68  43  40 NW10      29.86R
ROCKY MOUNT    CLOUDY    71  50  47 W3        29.83S
FAYETTEVILLE   MOSUNNY   75  46  35 W12       29.83S
CHARLOTTE      PTSUNNY   72  43  35 NW9       29.87S
$$

VAZ100-212200-
MARINE

STATION/POSITION TIME  TEMP    WIND        PRES    WAVE   SWELL
                       AIR SEA DIR/SP/G            HT/PER HT/PER
                 (UTC) (F)     (DEG/KT/KT) (MB)    (FT/S) (FT/S)
44066 TX TWR #4  2100   67 67  180/  6/  8 1009.7S   5/ 6   5/ 6
CAPE MAY NJ      2100   66 68  320/  3/  4 1008.8S
LEWES DE         2100   64 64   70/  6/  7 1009.1S
15NM E FENWICK I 2100   67 67  160/  8/ 10 1009.0S   3/ 6   3/ 6
OCEAN-CITY-INLET 2100   68 64  190/  8/ 10 1008.7S
WACHAPREAGUE VA  2100   70 64  270/  4/  5 1009.5S
THOMAS POINT MD  2100   65 65   90/  5/  6 1010.4R
GOOSES REEF MD   2100   66     100/  6/  8 1009.9S
COVE POINT MD    2100   66      60/  3/  4 1009.1F
SOLOMONS ISLAND  2100      67                N/A
BISHOPS HEAD MD  2100   64 62  270/  3/  4 1009.1R
PINEY POINT MD   2100          130/  6/  7   N/A
POTOMAC MD       2100   66      90/  6/  8 1008.8F
CAMBRIDGE MD     2100   67 63  330/  3/  4 1009.2R
LEWISETTA VA     2100   65 64  110/  9/ 11 1008.8S
RAPPAHANNOCK LGT 2100           40/  6/  6 1009.9S
STINGRAY PT      2100   66      80/  6/  8 1010.1F
YORK RVR RNG VA  2100   69     190/  3/  3 1008.7R
YORKTOWN VA      2100   71 68  220/  3/  4 1008.7S
JAMESTOWN VA     2100   68      50/  2/  2   N/A
DOMINION TERM VA 2100   71     280/  4/  5 1009.3R
KIPTOPEKE VA     2100      71  350/  2/  3   N/A
CHES BAY BRIDGE  2100   71 67  290/  8/  9 1008.7S
CHESAPEAKE LGHT  2000   67      50/  3/  3 1010.2S
WILLOUBY STN VA  2100   72     220/  3/  4 1008.0S
S CRANEY ISL VA  2100          290/  5/  6 1009.0R
CAPE HENRY BUOY  2100      70                N/A     2/10
1ST LANDING BUOY 2100   70     320/  8/ 10 1008.9F
CAPE CHARLES BUO 2100      69                N/A     2/ 5   2/ 5
64NM E OF VA BCH 2100   69 69  220/ 10/ 12 1009.4S   2/ 9   2/ 9
DUCK PIER NC     2100   72 69  210/  5/  6 1008.9R
44100 DUCK FRF   2100      71                N/A     2/10   2/11
44056 DUCK FRF   2100                        N/A     2/11   2/11
OREGON INLET NC  2100   70 68  190/ 13/ 15 1009.9R
HATTERAS NC      2100   73 71  220/  7/  9 1010.8S
DIAMOND SHLS NC  2100   73     210/ 12/ 16 1010.6F   3/ 5   2/ 9
CAPE LOOKOUT NC  2000   72     220/  9/ 12 1010.4F
$$




U.S. Dept. of Commerce
NOAA National Weather Service
1325 East West Highway
Silver Spring, MD 20910
E-mail: w-nws.webmaster@noaa.gov
Page last modified: May 16, 2007
NATIONAL WEATHER SERVICE: for Safety, for Work, for Fun - FOR LIFE